Powrót do katalogu

FENGYUN 1C DEB

AktywnySSO
NORAD 37928·DEBRIS·🇨🇳 China

Wystrzelony May 10, 1999 z Taiyuan Satellite Launch Center

Loading…

Następne Przeloty (najbliższe 24 godziny)

TLE

ŚwieżeSource: Space-Track

Epoka: Sep 14, 2026, 03:32 UTC

1 37928U 99025EPD 26257.14755615  .00000986  00000-0  33252-3 0  9991
2 37928  98.8822 146.4279 0070772 301.7829  57.6476 14.37979339851491

Śledź FENGYUN 1C DEB w czasie rzeczywistym z AllMySat

Download on the App Store